Time,TemperatureF,DewpointF,PressureIn,WindDirection,WindDirectionDegrees,WindSpeedMPH,WindSpeedGustMPH,Humidity,HourlyPrecipIn,Conditions,Clouds,dailyrainin,SoftwareType,DateUTC
2013-02-22 00:00:00,42.3,22.9,29.91,NW,315,2.3,2.3,46,0.00,CLR,,0.00,WeatherDisplay:10.37,2013-02-22 05:00:00,
2013-02-22 00:01:00,42.3,22.9,29.91,NW,315,3.5,3.5,46,0.00,CLR,,0.00,WeatherDisplay:10.37,2013-02-22 05:01:00,
2013-02-22 00:06:00,42.3,22.9,29.91,NW,315,3.5,3.8,46,0.00,CLR,,0.00,WeatherDisplay:10.37,2013-02-22 05:06:00,
2013-02-22 00:10:00,42.1,23.3,29.90,NW,325,2.0,10.0,47,0.00,CLR,,0.00,WeatherDisplay:10.37,2013-02-22 05:10:00,
2013-02-22 00:15:00,42.1,22.8,29.89,NW,315,5.8,5.8,46,0.00,CLR,,0.00,WeatherDisplay:10.37,2013-02-22 05:15:00,
2013-02-22 00:20:00,42.1,23.3,29.89,West,270,5.8,5.8,47,0.00,CLR,,0.00,WeatherDisplay:10.37,2013-02-22 05:20:00,
2013-02-22 00:25:00,41.9,22.6,29.91,South,180,8.1,8.1,46,0.00,CLR,,0.00,WeatherDisplay:10.37,2013-02-22 05:25:00,
2013-02-22 00:30:00,41.9,22.6,29.91,SW,236,2.0,8.0,46,0.00,CLR,,0.00,WeatherDisplay:10.37,2013-02-22 05:30:00,
2013-02-22 00:35:00,41.9,23.1,29.92,SW,225,9.2,9.2,47,0.00,CLR,,0.00,WeatherDisplay:10.37,2013-02-22 05:35:00,
2013-02-22 00:40:00,41.9,23.1,29.94,NE,45,3.5,3.5,47,0.00,CLR,,0.00,WeatherDisplay:10.37,2013-02-22 05:40:00,
2013-02-22 00:45:00,41.9,22.6,29.94,West,270,1.2,0.0,46,0.00,CLR,,0.00,WeatherDisplay:10.37,2013-02-22 05:45:00,
2013-02-22 00:50:00,41.7,22.4,29.96,NW,315,3.5,3.5,46,0.00,CLR,,0.00,WeatherDisplay:10.37,2013-02-22 05:50:00,
2013-02-22 00:55:00,41.7,22.4,29.96,North,0,1.2,1.2,46,0.00,CLR,,0.00,WeatherDisplay:10.37,2013-02-22 05:55:00,
2013-02-22 01:00:00,41.7,22.4,29.96,West,270,2.3,2.3,46,0.00,CLR,,0.00,WeatherDisplay:10.37,2013-02-22 06:00:00,
2013-02-22 01:05:00,41.7,22.4,29.97,West,270,2.3,2.3,46,0.00,CLR,,0.00,WeatherDisplay:10.37,2013-02-22 06:05:00,
2013-02-22 01:10:00,41.7,21.9,29.97,South,180,1.2,0.0,45,0.00,CLR,,0.00,WeatherDisplay:10.37,2013-02-22 06:10:00,
2013-02-22 01:15:00,41.5,21.8,29.98,NE,45,1.2,0.0,45,0.00,CLR,,0.00,WeatherDisplay:10.37,2013-02-22 06:15:00,
2013-02-22 01:20:00,41.5,21.8,29.99,SE,135,3.5,3.5,45,0.00,CLR,,0.00,WeatherDisplay:10.37,2013-02-22 06:20:00,
2013-02-22 01:25:00,41.5,21.8,30.00,North,0,1.2,0.0,45,0.00,CLR,,0.00,WeatherDisplay:10.37,2013-02-22 06:25:00,
2013-02-22 01:30:00,41.5,21.8,30.00,North,0,2.3,2.3,45,0.00,CLR,,0.00,WeatherDisplay:10.37,2013-02-22 06:30:00,
2013-02-22 01:35:00,41.5,21.8,30.01,East,90,2.3,2.3,45,0.00,CLR,,0.00,WeatherDisplay:10.37,2013-02-22 06:35:00,
2013-02-22 01:40:00,41.5,21.2,30.02,South,180,1.2,1.2,44,0.00,CLR,,0.00,WeatherDisplay:10.37,2013-02-22 06:40:00,
2013-02-22 01:45:00,41.5,21.2,30.02,West,270,1.2,0.0,44,0.00,CLR,,0.00,WeatherDisplay:10.37,2013-02-22 06:45:00,
2013-02-22 01:50:00,41.4,21.1,30.01,North,0,2.3,2.3,44,0.00,CLR,,0.00,WeatherDisplay:10.37,2013-02-22 06:50:00,
2013-02-22 01:55:00,41.4,21.6,30.01,South,180,1.2,0.0,45,0.00,CLR,,0.00,WeatherDisplay:10.37,2013-02-22 06:55:00,
2013-02-22 02:00:00,41.2,21.9,30.00,NNW,338,1.2,0.0,46,0.00,CLR,,0.00,WeatherDisplay:10.37,2013-02-22 07:00:00,
2013-02-22 02:05:00,41.0,21.3,30.00,North,0,0.0,0.0,45,0.00,CLR,,0.00,WeatherDisplay:10.37,2013-02-22 07:05:00,
2013-02-22 02:10:00,41.0,21.3,30.00,NW,315,1.2,1.2,45,0.00,CLR,,0.00,WeatherDisplay:10.37,2013-02-22 07:10:00,
2013-02-22 02:15:00,41.0,21.8,30.00,North,0,1.2,0.0,46,0.00,CLR,,0.00,WeatherDisplay:10.37,2013-02-22 07:15:00,
2013-02-22 02:20:00,41.0,21.8,29.99,NW,315,3.5,3.5,46,0.00,CLR,,0.00,WeatherDisplay:10.37,2013-02-22 07:20:00,
2013-02-22 02:25:00,41.0,22.3,29.98,North,0,2.3,2.3,47,0.00,CLR,,0.00,WeatherDisplay:10.37,2013-02-22 07:25:00,
2013-02-22 02:30:00,41.0,22.3,29.98,NW,315,2.3,2.3,47,0.00,CLR,,0.00,WeatherDisplay:10.37,2013-02-22 07:30:00,
2013-02-22 02:35:00,40.6,22.9,29.98,NW,315,3.5,0.0,49,0.00,CLR,,0.00,WeatherDisplay:10.37,2013-02-22 07:35:00,
2013-02-22 02:40:00,40.3,24.0,29.98,North,0,3.5,3.5,52,0.00,CLR,,0.00,WeatherDisplay:10.37,2013-02-22 07:40:00,
2013-02-22 02:45:00,39.7,24.9,29.98,NW,315,3.5,3.5,55,0.00,CLR,,0.00,WeatherDisplay:10.37,2013-02-22 07:45:00,
2013-02-22 02:50:00,39.2,25.2,29.97,NW,315,2.3,2.3,57,0.00,CLR,,0.00,WeatherDisplay:10.37,2013-02-22 07:50:00,
2013-02-22 02:55:00,38.7,26.4,29.97,North,0,3.5,3.5,61,0.00,CLR,,0.00,WeatherDisplay:10.37,2013-02-22 07:55:00,
2013-02-22 03:00:00,38.3,27.2,29.97,WNW,292,3.5,3.5,64,0.01,RA,,0.01,WeatherDisplay:10.37,2013-02-22 08:00:00,
2013-02-22 03:05:00,38.3,27.2,29.98,WNW,292,3.5,3.5,64,0.01,RA,,0.01,WeatherDisplay:10.37,2013-02-22 08:05:00,
2013-02-22 03:10:00,37.8,27.4,29.97,NW,315,2.3,2.3,66,0.01,CLR,,0.01,WeatherDisplay:10.37,2013-02-22 08:10:00,
2013-02-22 03:15:00,37.2,26.2,29.98,East,90,3.5,3.5,64,0.02,RA,,0.02,WeatherDisplay:10.37,2013-02-22 08:15:00,
2013-02-22 03:20:00,36.9,27.6,29.99,NE,45,2.3,2.3,69,0.04,RA,,0.04,WeatherDisplay:10.37,2013-02-22 08:20:00,
2013-02-22 03:25:00,36.5,28.3,29.99,NE,45,2.3,2.3,72,0.04,RA,,0.04,WeatherDisplay:10.37,2013-02-22 08:25:00,
2013-02-22 03:30:00,36.3,28.8,29.99,East,90,3.5,0.0,74,0.05,RA,,0.05,WeatherDisplay:10.37,2013-02-22 08:30:00,
2013-02-22 03:35:00,36.1,28.6,29.99,NE,45,1.2,0.0,74,0.05,RA,,0.05,WeatherDisplay:10.37,2013-02-22 08:35:00,
2013-02-22 03:40:00,36.0,29.1,29.99,North,0,2.3,2.3,76,0.06,RA,,0.06,WeatherDisplay:10.37,2013-02-22 08:40:00,
2013-02-22 03:45:00,35.8,29.6,29.99,NE,45,3.5,3.5,78,0.06,RA,,0.06,WeatherDisplay:10.37,2013-02-22 08:45:00,
2013-02-22 03:50:00,35.4,29.9,30.00,NE,45,3.5,3.5,80,0.07,RA,,0.07,WeatherDisplay:10.37,2013-02-22 08:50:00,
2013-02-22 03:55:00,35.4,29.9,30.00,NE,45,1.2,0.0,80,0.08,RA,,0.08,WeatherDisplay:10.37,2013-02-22 08:55:00,
2013-02-22 04:00:00,35.4,29.9,29.99,NW,315,1.2,0.0,80,0.07,RA,,0.08,WeatherDisplay:10.37,2013-02-22 09:00:00,
2013-02-22 04:05:00,35.2,29.7,29.99,NW,315,1.2,0.0,80,0.08,RA,,0.09,WeatherDisplay:10.37,2013-02-22 09:05:00,
2013-02-22 04:10:00,35.1,29.5,29.99,SSE,158,1.2,1.2,80,0.08,RA,,0.11,WeatherDisplay:10.37,2013-02-22 09:10:00,
2013-02-22 04:15:00,35.1,29.5,29.99,West,270,0.0,0.0,80,0.08,RA,,0.11,WeatherDisplay:10.37,2013-02-22 09:15:00,
2013-02-22 04:20:00,34.9,29.3,29.99,NW,315,2.3,0.0,80,0.07,RA,,0.11,WeatherDisplay:10.37,2013-02-22 09:20:00,
2013-02-22 04:25:00,34.9,29.3,29.99,NW,315,2.3,0.0,80,0.07,CLR,,0.11,WeatherDisplay:10.37,2013-02-22 09:25:00,
2013-02-22 04:30:00,34.9,29.3,29.98,SW,225,1.2,0.0,80,0.07,RA,,0.12,WeatherDisplay:10.37,2013-02-22 09:30:00,
2013-02-22 04:35:00,34.9,29.6,29.98,NE,45,3.5,3.5,81,0.07,RA,,0.12,WeatherDisplay:10.37,2013-02-22 09:35:00,
2013-02-22 04:40:00,34.7,29.8,29.98,SE,135,3.5,3.5,82,0.06,CLR,,0.12,WeatherDisplay:10.37,2013-02-22 09:40:00,
2013-02-22 04:45:00,34.5,29.6,29.98,SW,225,2.3,0.0,82,0.07,RA,,0.13,WeatherDisplay:10.37,2013-02-22 09:45:00,
2013-02-22 04:50:00,34.3,29.4,29.97,NE,45,3.5,3.5,82,0.06,RA,,0.13,WeatherDisplay:10.37,2013-02-22 09:50:00,
2013-02-22 04:55:00,34.2,29.2,29.98,NNW,338,2.3,0.0,82,0.06,RA,,0.14,WeatherDisplay:10.37,2013-02-22 09:55:00,
2013-02-22 05:00:00,33.8,28.9,29.97,NW,315,3.5,3.5,82,0.06,RA,,0.14,WeatherDisplay:10.37,2013-02-22 10:00:00,
2013-02-22 05:05:00,33.6,29.0,29.97,NNE,22,1.2,1.2,83,0.05,,,0.14,WeatherDisplay:10.37,2013-02-22 10:05:00,
2013-02-22 05:10:00,33.4,28.8,29.96,North,0,2.3,2.3,83,0.05,CLR,,0.14,WeatherDisplay:10.37,2013-02-22 10:10:00,
2013-02-22 05:15:00,33.4,29.1,29.96,SW,225,2.3,0.0,84,0.05,RA,,0.15,WeatherDisplay:10.37,2013-02-22 10:15:00,
2013-02-22 05:20:00,33.4,29.1,29.95,NW,315,3.5,3.5,84,0.05,RA,,0.15,WeatherDisplay:10.37,2013-02-22 10:20:00,
2013-02-22 05:25:00,33.4,29.1,29.95,SW,225,3.5,0.0,84,0.05,,,0.15,WeatherDisplay:10.37,2013-02-22 10:25:00,
2013-02-22 05:30:00,33.3,28.9,29.94,North,0,3.5,3.5,84,0.04,CLR,,0.15,WeatherDisplay:10.37,2013-02-22 10:30:00,
2013-02-22 05:35:00,33.3,28.9,29.94,North,0,1.2,0.0,84,0.04,CLR,,0.17,WeatherDisplay:10.37,2013-02-22 10:35:00,
2013-02-22 05:40:00,33.3,28.9,29.95,North,0,0.0,0.0,84,0.05,RA,,0.17,WeatherDisplay:10.37,2013-02-22 10:40:00,
2013-02-22 05:45:00,33.1,28.8,29.93,NW,315,0.0,0.0,84,0.04,RA,,0.17,WeatherDisplay:10.37,2013-02-22 10:45:00,
2013-02-22 05:50:00,33.1,28.8,29.93,North,0,0.0,0.0,84,0.04,CLR,,0.17,WeatherDisplay:10.37,2013-02-22 10:50:00,
2013-02-22 05:55:00,32.9,28.6,29.92,West,270,1.2,0.0,84,0.04,RA,,0.18,WeatherDisplay:10.37,2013-02-22 10:55:00,
2013-02-22 06:00:00,32.7,28.4,29.91,NNW,338,2.3,0.0,84,0.04,RA,,0.18,WeatherDisplay:10.37,2013-02-22 11:00:00,
2013-02-22 06:05:00,32.7,28.7,29.91,NNW,338,0.0,0.0,85,0.04,CLR,,0.18,WeatherDisplay:10.37,2013-02-22 11:05:00,
2013-02-22 06:10:00,32.7,28.7,29.91,NNW,338,0.0,0.0,85,0.04,CLR,,0.18,WeatherDisplay:10.37,2013-02-22 11:10:00,
2013-02-22 06:15:00,32.5,28.5,29.91,NNW,338,0.0,0.0,85,0.02,CLR,,0.18,WeatherDisplay:10.37,2013-02-22 11:15:00,
2013-02-22 06:20:00,32.5,28.5,29.92,NNW,338,0.0,0.0,85,0.02,CLR,,0.18,WeatherDisplay:10.37,2013-02-22 11:20:00,
2013-02-22 06:25:00,32.5,28.5,29.91,NNW,338,0.0,0.0,85,0.02,CLR,,0.18,WeatherDisplay:10.37,2013-02-22 11:25:00,
2013-02-22 06:30:00,32.5,28.5,29.91,NNW,338,0.0,0.0,85,0.02,CLR,,0.18,WeatherDisplay:10.37,2013-02-22 11:30:00,
2013-02-22 06:35:00,32.7,28.7,29.91,NNW,338,0.0,0.0,85,0.02,CLR,,0.18,WeatherDisplay:10.37,2013-02-22 11:35:00,
2013-02-22 06:40:00,32.7,29.0,29.92,NNW,338,0.0,0.0,86,0.01,CLR,,0.18,WeatherDisplay:10.37,2013-02-22 11:40:00,
2013-02-22 06:45:00,32.7,29.0,29.94,NNW,338,0.0,0.0,86,0.02,RA,,0.19,WeatherDisplay:10.37,2013-02-22 11:45:00,
2013-02-22 06:50:00,32.7,29.0,29.96,NNW,338,0.0,0.0,86,0.02,RA,,0.19,WeatherDisplay:10.37,2013-02-22 11:50:00,
2013-02-22 06:55:00,32.7,29.0,29.96,NNW,338,0.0,0.0,86,0.01,CLR,,0.19,WeatherDisplay:10.37,2013-02-22 11:55:00,
2013-02-22 07:00:00,32.7,28.7,29.98,NNW,338,0.0,0.0,85,0.01,CLR,,0.19,WeatherDisplay:10.37,2013-02-22 12:00:00,
2013-02-22 07:05:00,32.9,28.9,29.99,NNW,338,0.0,0.0,85,0.01,CLR,,0.19,WeatherDisplay:10.37,2013-02-22 12:05:00,
2013-02-22 07:10:00,32.9,29.2,29.97,NNW,338,0.0,0.0,86,0.01,CLR,,0.19,WeatherDisplay:10.37,2013-02-22 12:10:00,
2013-02-22 07:15:00,33.1,29.3,29.98,NNW,338,0.0,0.0,86,0.01,CLR,,0.19,WeatherDisplay:10.37,2013-02-22 12:15:00,
2013-02-22 07:20:00,33.1,29.3,29.97,NNW,338,0.0,0.0,86,0.01,CLR,,0.19,WeatherDisplay:10.37,2013-02-22 12:20:00,
2013-02-22 07:25:00,33.1,29.3,29.98,NNW,338,0.0,0.0,86,0.01,CLR,,0.19,WeatherDisplay:10.37,2013-02-22 12:25:00,
2013-02-22 07:30:00,33.1,29.3,29.98,NNW,338,0.0,0.0,86,0.01,CLR,,0.19,WeatherDisplay:10.37,2013-02-22 12:30:00,
2013-02-22 07:35:00,33.3,29.5,29.99,NNW,338,0.0,0.0,86,0.01,CLR,,0.19,WeatherDisplay:10.37,2013-02-22 12:35:00,
2013-02-22 07:40:00,33.3,29.5,29.97,NNW,338,0.0,0.0,86,0.01,CLR,,0.19,WeatherDisplay:10.37,2013-02-22 12:40:00,
2013-02-22 07:45:00,33.3,29.5,29.97,NNW,338,0.0,0.0,86,0.00,CLR,,0.19,WeatherDisplay:10.37,2013-02-22 12:45:00,
2013-02-22 07:50:00,33.3,29.5,29.99,NNW,338,0.0,0.0,86,0.00,CLR,,0.19,WeatherDisplay:10.37,2013-02-22 12:50:00,
2013-02-22 07:55:00,33.4,29.7,29.98,NNW,338,0.0,0.0,86,0.00,CLR,,0.19,WeatherDisplay:10.37,2013-02-22 12:55:00,
2013-02-22 08:00:00,33.4,29.7,29.99,NNW,338,0.0,0.0,86,0.00,CLR,,0.19,WeatherDisplay:10.37,2013-02-22 13:00:00,
2013-02-22 08:05:00,33.6,29.9,29.99,NNW,338,0.0,0.0,86,0.00,CLR,,0.19,WeatherDisplay:10.37,2013-02-22 13:05:00,
2013-02-22 08:10:00,33.8,29.8,29.99,NNW,338,0.0,0.0,85,0.00,CLR,,0.19,WeatherDisplay:10.37,2013-02-22 13:10:00,
2013-02-22 08:15:00,33.8,29.8,29.99,NNW,338,0.0,0.0,85,0.00,CLR,,0.19,WeatherDisplay:10.37,2013-02-22 13:15:00,
2013-02-22 08:20:00,33.8,29.8,29.99,NNW,338,0.0,0.0,85,0.00,CLR,,0.19,WeatherDisplay:10.37,2013-02-22 13:20:00,
2013-02-22 08:25:00,34.0,29.7,30.00,NNW,338,0.0,0.0,84,0.00,CLR,,0.19,WeatherDisplay:10.37,2013-02-22 13:25:00,
2013-02-22 08:30:00,34.0,29.7,29.99,NNW,338,0.0,0.0,84,0.00,CLR,,0.19,WeatherDisplay:10.37,2013-02-22 13:30:00,
2013-02-22 08:35:00,34.0,29.7,29.99,NNW,338,0.0,0.0,84,0.00,CLR,,0.19,WeatherDisplay:10.37,2013-02-22 13:35:00,
2013-02-22 08:40:00,34.2,29.5,29.99,NNW,338,0.0,0.0,83,0.00,CLR,,0.19,WeatherDisplay:10.37,2013-02-22 13:40:00,
2013-02-22 08:45:00,34.3,29.7,30.00,NNW,338,0.0,0.0,83,0.00,CLR,,0.19,WeatherDisplay:10.37,2013-02-22 13:45:00,
2013-02-22 08:50:00,34.5,29.9,30.00,NNW,338,0.0,0.0,83,0.00,CLR,,0.19,WeatherDisplay:10.37,2013-02-22 13:50:00,
2013-02-22 08:55:00,34.5,29.9,30.00,NNW,338,0.0,0.0,83,0.00,CLR,,0.19,WeatherDisplay:10.37,2013-02-22 13:55:00,
2013-02-22 09:00:00,34.5,29.9,30.00,West,270,0.0,0.0,83,0.00,CLR,,0.19,WeatherDisplay:10.37,2013-02-22 14:00:00,
2013-02-22 09:05:00,34.7,30.1,30.00,West,270,0.0,0.0,83,0.00,CLR,,0.19,WeatherDisplay:10.37,2013-02-22 14:05:00,
2013-02-22 09:10:00,34.9,29.9,30.00,West,270,0.0,0.0,82,0.00,CLR,,0.19,WeatherDisplay:10.37,2013-02-22 14:10:00,
2013-02-22 09:15:00,35.2,30.3,30.00,SE,135,1.2,0.0,82,0.00,CLR,,0.19,WeatherDisplay:10.37,2013-02-22 14:15:00,
2013-02-22 09:20:00,35.4,30.5,30.01,East,90,0.0,0.0,82,0.00,CLR,,0.19,WeatherDisplay:10.37,2013-02-22 14:20:00,
2013-02-22 09:25:00,35.4,30.5,30.02,NE,45,1.2,0.0,82,0.00,CLR,,0.19,WeatherDisplay:10.37,2013-02-22 14:25:00,
2013-02-22 09:30:00,35.4,30.2,30.01,SW,225,0.0,0.0,81,0.00,CLR,,0.19,WeatherDisplay:10.37,2013-02-22 14:30:00,
2013-02-22 09:35:00,35.4,30.2,30.00,WSW,248,3.5,3.5,81,0.00,CLR,,0.19,WeatherDisplay:10.37,2013-02-22 14:35:00,
2013-02-22 09:40:00,35.6,30.3,29.99,SW,225,3.5,3.5,81,0.00,CLR,,0.19,WeatherDisplay:10.37,2013-02-22 14:40:00,
2013-02-22 09:45:00,35.8,30.5,29.99,West,270,1.2,1.2,81,0.00,CLR,,0.19,WeatherDisplay:10.37,2013-02-22 14:45:00,
2013-02-22 09:50:00,36.0,30.4,29.97,SW,225,3.5,3.5,80,0.00,CLR,,0.19,WeatherDisplay:10.37,2013-02-22 14:50:00,
2013-02-22 09:55:00,36.1,30.9,29.97,South,180,3.5,3.5,81,0.00,CLR,,0.19,WeatherDisplay:10.37,2013-02-22 14:55:00,
2013-02-22 10:00:00,36.1,30.9,29.97,SW,225,3.5,3.5,81,0.00,CLR,,0.19,WeatherDisplay:10.37,2013-02-22 15:00:00,
2013-02-22 10:05:00,36.0,30.4,29.97,NW,315,3.5,3.5,80,0.00,CLR,,0.19,WeatherDisplay:10.37,2013-02-22 15:05:00,
2013-02-22 10:10:00,35.6,29.4,29.98,South,180,3.5,3.5,78,0.00,CLR,,0.19,WeatherDisplay:10.37,2013-02-22 15:10:00,
2013-02-22 10:15:00,35.6,29.7,29.98,SW,225,2.3,2.3,79,0.00,CLR,,0.19,WeatherDisplay:10.37,2013-02-22 15:15:00,
2013-02-22 10:20:00,35.8,30.2,29.97,West,270,4.6,4.6,80,0.00,CLR,,0.19,WeatherDisplay:10.37,2013-02-22 15:20:00,
2013-02-22 10:25:00,36.1,30.9,29.97,South,180,1.2,1.2,81,0.00,CLR,,0.19,WeatherDisplay:10.37,2013-02-22 15:25:00,
2013-02-22 10:30:00,36.1,30.9,29.97,NW,315,3.5,3.5,81,0.00,CLR,,0.19,WeatherDisplay:10.37,2013-02-22 15:30:00,
2013-02-22 10:35:00,36.3,30.7,29.98,SW,225,2.3,2.3,80,0.00,CLR,,0.19,WeatherDisplay:10.37,2013-02-22 15:35:00,
2013-02-22 10:40:00,36.7,31.1,29.98,SW,225,3.5,3.5,80,0.00,CLR,,0.19,WeatherDisplay:10.37,2013-02-22 15:40:00,
2013-02-22 10:45:00,37.2,31.6,29.97,South,180,5.8,5.8,80,0.00,CLR,,0.19,WeatherDisplay:10.37,2013-02-22 15:45:00,
2013-02-22 10:50:00,37.2,31.6,29.97,North,0,6.9,6.9,80,0.00,CLR,,0.19,WeatherDisplay:10.37,2013-02-22 15:50:00,
2013-02-22 10:55:00,37.0,31.1,29.97,SW,225,3.5,3.5,79,0.00,CLR,,0.19,WeatherDisplay:10.37,2013-02-22 15:55:00,
2013-02-22 11:00:00,37.0,31.1,29.97,SW,225,3.5,3.5,79,0.00,CLR,,0.19,WeatherDisplay:10.37,2013-02-22 16:00:00,
2013-02-22 11:05:00,37.0,31.1,29.97,WNW,292,4.6,4.6,79,0.00,CLR,,0.19,WeatherDisplay:10.37,2013-02-22 16:05:00,
2013-02-22 11:10:00,37.8,33.7,29.97,South,180,5.8,5.8,85,0.00,CLR,,0.19,WeatherDisplay:10.37,2013-02-22 16:10:00,
2013-02-22 11:15:00,37.6,33.2,29.98,SW,225,8.1,8.1,84,0.00,CLR,,0.19,WeatherDisplay:10.37,2013-02-22 16:15:00,
2013-02-22 11:20:00,37.2,31.3,29.98,SE,135,3.5,3.5,79,0.00,CLR,,0.19,WeatherDisplay:10.37,2013-02-22 16:20:00,
2013-02-22 11:25:00,37.2,31.0,29.97,NW,315,4.6,4.6,78,0.00,CLR,,0.19,WeatherDisplay:10.37,2013-02-22 16:25:00,
2013-02-22 11:30:00,37.6,32.6,29.97,SW,225,5.8,5.8,82,0.00,CLR,,0.19,WeatherDisplay:10.37,2013-02-22 16:30:00,
2013-02-22 11:35:00,37.8,32.8,29.98,West,270,4.6,4.6,82,0.00,CLR,,0.19,WeatherDisplay:10.37,2013-02-22 16:35:00,
2013-02-22 11:40:00,38.5,33.5,29.96,NE,45,3.5,3.5,82,0.00,CLR,,0.19,WeatherDisplay:10.37,2013-02-22 16:40:00,
2013-02-22 11:45:00,39.2,33.9,29.96,NW,315,3.5,3.5,81,0.00,CLR,,0.19,WeatherDisplay:10.37,2013-02-22 16:45:00,
2013-02-22 11:50:00,39.2,33.9,29.96,NW,315,2.3,2.3,81,0.00,CLR,,0.19,WeatherDisplay:10.37,2013-02-22 16:50:00,
2013-02-22 11:55:00,38.7,32.7,29.96,West,270,3.5,3.5,79,0.00,CLR,,0.19,WeatherDisplay:10.37,2013-02-22 16:55:00,
2013-02-22 12:00:00,38.7,33.0,29.96,WSW,248,4.6,4.6,80,0.00,CLR,,0.19,WeatherDisplay:10.37,2013-02-22 17:00:00,
2013-02-22 12:05:00,38.7,33.0,29.96,West,270,3.5,3.5,80,0.00,CLR,,0.19,WeatherDisplay:10.37,2013-02-22 17:05:00,
2013-02-22 12:10:00,38.7,33.0,29.96,SW,225,6.9,6.9,80,0.00,CLR,,0.19,WeatherDisplay:10.37,2013-02-22 17:10:00,
2013-02-22 12:15:00,38.7,32.7,29.95,SW,225,4.6,4.6,79,0.00,CLR,,0.19,WeatherDisplay:10.37,2013-02-22 17:15:00,
2013-02-22 12:20:00,38.7,33.0,29.95,NNW,338,5.8,5.8,80,0.00,CLR,,0.19,WeatherDisplay:10.37,2013-02-22 17:20:00,
2013-02-22 12:25:00,38.5,32.5,29.96,SW,225,5.8,0.0,79,0.00,CLR,,0.19,WeatherDisplay:10.37,2013-02-22 17:25:00,
2013-02-22 12:30:00,38.5,32.5,29.95,SW,225,6.0,6.0,79,0.00,CLR,,0.19,WeatherDisplay:10.37,2013-02-22 17:30:00,
2013-02-22 12:35:00,38.8,33.2,29.95,SE,135,2.3,2.3,80,0.00,CLR,,0.19,WeatherDisplay:10.37,2013-02-22 17:35:00,
2013-02-22 12:40:00,38.8,32.9,29.95,SW,225,5.8,5.8,79,0.00,CLR,,0.19,WeatherDisplay:10.37,2013-02-22 17:40:00,
2013-02-22 12:45:00,38.7,32.7,29.95,SW,225,5.8,5.8,79,0.00,CLR,,0.19,WeatherDisplay:10.37,2013-02-22 17:45:00,
2013-02-22 12:50:00,38.7,33.0,29.95,SW,225,3.5,3.5,80,0.00,CLR,,0.19,WeatherDisplay:10.37,2013-02-22 17:50:00,
2013-02-22 12:55:00,38.7,33.0,29.95,SW,225,3.5,3.5,80,0.00,CLR,,0.19,WeatherDisplay:10.37,2013-02-22 17:55:00,
2013-02-22 13:00:00,38.8,33.5,29.94,SW,225,4.6,4.6,81,0.00,CLR,,0.19,WeatherDisplay:10.37,2013-02-22 18:00:00,
2013-02-22 13:05:00,38.8,33.5,29.94,SW,225,4.6,4.6,81,0.00,CLR,,0.19,WeatherDisplay:10.37,2013-02-22 18:05:00,
2013-02-22 13:10:00,38.8,32.9,29.94,SW,225,1.2,1.6,79,0.00,CLR,,0.19,WeatherDisplay:10.37,2013-02-22 18:10:00,
2013-02-22 13:15:00,38.7,32.4,29.94,SW,225,3.5,3.5,78,0.00,CLR,,0.19,WeatherDisplay:10.37,2013-02-22 18:15:00,
2013-02-22 13:20:00,38.7,32.4,29.93,NE,45,1.2,1.2,78,0.00,CLR,,0.19,WeatherDisplay:10.37,2013-02-22 18:20:00,
2013-02-22 13:25:00,38.8,32.9,29.93,West,270,3.5,3.5,79,0.00,CLR,,0.19,WeatherDisplay:10.37,2013-02-22 18:25:00,
2013-02-22 13:30:00,39.0,33.4,29.92,NNW,338,2.3,0.0,80,0.00,CLR,,0.19,WeatherDisplay:10.37,2013-02-22 18:30:00,
2013-02-22 13:35:00,39.2,33.2,29.93,SW,225,1.2,0.0,79,0.00,CLR,,0.19,WeatherDisplay:10.37,2013-02-22 18:35:00,
2013-02-22 13:40:00,39.2,32.9,29.93,NE,45,2.3,2.3,78,0.00,CLR,,0.19,WeatherDisplay:10.37,2013-02-22 18:40:00,
2013-02-22 13:45:00,39.0,32.7,29.91,NW,315,3.5,3.5,78,0.00,CLR,,0.19,WeatherDisplay:10.37,2013-02-22 18:45:00,
2013-02-22 13:50:00,38.8,32.6,29.91,NW,315,6.9,6.9,78,0.00,CLR,,0.19,WeatherDisplay:10.37,2013-02-22 18:50:00,
2013-02-22 13:55:00,38.8,32.6,29.90,West,270,3.5,3.5,78,0.00,CLR,,0.19,WeatherDisplay:10.37,2013-02-22 18:55:00,
2013-02-22 14:00:00,39.0,32.7,29.90,NW,315,3.5,3.5,78,0.00,CLR,,0.19,WeatherDisplay:10.37,2013-02-22 19:00:00,
2013-02-22 14:05:00,39.4,32.8,29.89,SW,225,5.8,5.8,77,0.00,CLR,,0.19,WeatherDisplay:10.37,2013-02-22 19:05:00,
2013-02-22 14:10:00,39.2,32.6,29.90,WSW,248,8.1,8.1,77,0.00,CLR,,0.19,WeatherDisplay:10.37,2013-02-22 19:10:00,
2013-02-22 14:15:00,38.8,32.6,29.90,North,0,3.5,3.8,78,0.00,CLR,,0.19,WeatherDisplay:10.37,2013-02-22 19:15:00,
2013-02-22 14:20:00,38.8,32.6,29.90,SW,225,1.2,1.2,78,0.00,CLR,,0.19,WeatherDisplay:10.37,2013-02-22 19:20:00,
2013-02-22 14:25:00,39.2,32.9,29.90,North,0,3.5,0.0,78,0.00,CLR,,0.19,WeatherDisplay:10.37,2013-02-22 19:25:00,
2013-02-22 14:30:00,39.0,32.7,29.90,NW,315,5.8,5.8,78,0.00,CLR,,0.19,WeatherDisplay:10.37,2013-02-22 19:30:00,
2013-02-22 14:35:00,38.8,32.6,29.90,NW,315,1.2,1.6,78,0.00,CLR,,0.19,WeatherDisplay:10.37,2013-02-22 19:35:00,
2013-02-22 14:40:00,38.8,32.6,29.89,South,180,2.3,2.3,78,0.00,CLR,,0.19,WeatherDisplay:10.37,2013-02-22 19:40:00,
2013-02-22 14:45:00,39.0,32.7,29.89,SW,225,1.2,0.0,78,0.00,CLR,,0.19,WeatherDisplay:10.37,2013-02-22 19:45:00,
2013-02-22 14:50:00,39.2,32.6,29.90,West,270,4.6,4.6,77,0.00,CLR,,0.19,WeatherDisplay:10.37,2013-02-22 19:50:00,
2013-02-22 14:55:00,39.2,32.3,29.90,SW,225,1.2,1.2,76,0.00,CLR,,0.19,WeatherDisplay:10.37,2013-02-22 19:55:00,
2013-02-22 15:00:00,39.4,32.8,29.89,NNW,338,3.5,3.5,77,0.01,RA,,0.20,WeatherDisplay:10.37,2013-02-22 20:00:00,
2013-02-22 15:05:00,39.4,32.8,29.90,NNW,338,3.5,3.5,77,0.01,RA,,0.20,WeatherDisplay:10.37,2013-02-22 20:05:00,
2013-02-22 15:10:00,38.8,32.9,29.90,West,270,2.3,2.3,79,0.01,CLR,,0.20,WeatherDisplay:10.37,2013-02-22 20:10:00,
2013-02-22 15:15:00,38.7,33.0,29.89,NW,315,3.5,3.5,80,0.01,CLR,,0.20,WeatherDisplay:10.37,2013-02-22 20:15:00,
2013-02-22 15:20:00,38.5,33.5,29.90,NW,315,3.5,3.5,82,0.01,CLR,,0.20,WeatherDisplay:10.37,2013-02-22 20:20:00,
2013-02-22 15:25:00,38.3,33.9,29.90,NW,315,1.2,1.2,84,0.01,CLR,,0.20,WeatherDisplay:10.37,2013-02-22 20:25:00,
2013-02-22 15:30:00,38.1,33.7,29.90,SE,135,2.3,0.0,84,0.01,CLR,,0.20,WeatherDisplay:10.37,2013-02-22 20:30:00,
2013-02-22 15:35:00,38.1,34.0,29.89,NW,315,3.5,0.0,85,0.01,CLR,,0.20,WeatherDisplay:10.37,2013-02-22 20:35:00,
2013-02-22 15:40:00,38.3,34.5,29.88,West,270,3.5,3.5,86,0.01,CLR,,0.20,WeatherDisplay:10.37,2013-02-22 20:40:00,
2013-02-22 15:45:00,38.5,34.7,29.88,SW,225,2.3,2.3,86,0.01,CLR,,0.20,WeatherDisplay:10.37,2013-02-22 20:45:00,
2013-02-22 15:50:00,38.7,34.8,29.88,SW,225,4.6,4.6,86,0.01,CLR,,0.20,WeatherDisplay:10.37,2013-02-22 20:50:00,
2013-02-22 15:55:00,38.7,34.8,29.89,NE,45,3.5,0.0,86,0.02,RA,,0.21,WeatherDisplay:10.37,2013-02-22 20:55:00,
2013-02-22 16:00:00,38.7,34.8,29.89,NNW,338,1.2,1.2,86,0.01,RA,,0.21,WeatherDisplay:10.37,2013-02-22 21:00:00,
2013-02-22 16:05:00,38.5,34.7,29.89,North,0,3.5,3.5,86,0.01,CLR,,0.21,WeatherDisplay:10.37,2013-02-22 21:05:00,
2013-02-22 16:10:00,38.3,34.5,29.90,NW,315,1.2,1.2,86,0.01,CLR,,0.21,WeatherDisplay:10.37,2013-02-22 21:10:00,
2013-02-22 16:15:00,38.3,34.5,29.89,ENE,68,4.6,4.6,86,0.01,CLR,,0.21,WeatherDisplay:10.37,2013-02-22 21:15:00,
2013-02-22 16:20:00,37.9,34.4,29.89,SW,225,3.5,3.5,87,0.02,RA,,0.22,WeatherDisplay:10.37,2013-02-22 21:20:00,
2013-02-22 16:25:00,37.9,34.4,29.89,NE,45,3.5,3.5,87,0.02,RA,,0.22,WeatherDisplay:10.37,2013-02-22 21:25:00,
2013-02-22 16:30:00,37.6,34.3,29.88,South,180,4.6,4.6,88,0.04,RA,,0.24,WeatherDisplay:10.37,2013-02-22 21:30:00,
2013-02-22 16:35:00,37.6,34.3,29.88,West,270,2.3,2.3,88,0.04,RA,,0.24,WeatherDisplay:10.37,2013-02-22 21:35:00,
2013-02-22 16:40:00,37.4,34.5,29.89,NE,45,2.3,2.3,89,0.05,RA,,0.25,WeatherDisplay:10.37,2013-02-22 21:40:00,
2013-02-22 16:45:00,37.4,34.5,29.89,North,0,4.6,4.6,89,0.05,RA,,0.25,WeatherDisplay:10.37,2013-02-22 21:45:00,
2013-02-22 16:50:00,37.4,34.7,29.89,East,90,3.5,3.5,90,0.06,RA,,0.26,WeatherDisplay:10.37,2013-02-22 21:50:00,
2013-02-22 16:55:00,37.4,35.0,29.88,NW,315,3.5,3.5,91,0.05,RA,,0.26,WeatherDisplay:10.37,2013-02-22 21:55:00,
2013-02-22 17:00:00,37.4,35.0,29.88,SW,225,2.3,2.3,91,0.05,CLR,,0.26,WeatherDisplay:10.37,2013-02-22 22:00:00,
2013-02-22 17:05:00,37.4,35.0,29.88,SW,225,2.3,2.3,91,0.05,CLR,,0.26,WeatherDisplay:10.37,2013-02-22 22:05:00,
2013-02-22 17:10:00,37.2,34.0,29.88,NE,45,4.6,4.6,88,0.05,CLR,,0.26,WeatherDisplay:10.37,2013-02-22 22:10:00,
2013-02-22 17:15:00,37.2,34.0,29.88,North,0,5.4,5.4,88,0.05,CLR,,0.26,WeatherDisplay:10.37,2013-02-22 22:15:00,
2013-02-22 17:20:00,37.2,34.0,29.88,South,180,3.5,3.5,88,0.04,CLR,,0.26,WeatherDisplay:10.37,2013-02-22 22:20:00,
2013-02-22 17:25:00,37.2,34.0,29.87,SW,225,1.2,0.0,88,0.04,CLR,,0.26,WeatherDisplay:10.37,2013-02-22 22:25:00,
2013-02-22 17:30:00,37.0,33.8,29.87,North,0,3.5,3.5,88,0.02,CLR,,0.26,WeatherDisplay:10.37,2013-02-22 22:30:00,
2013-02-22 17:35:00,37.2,34.3,29.88,SE,135,2.3,2.3,89,0.02,CLR,,0.26,WeatherDisplay:10.37,2013-02-22 22:35:00,
2013-02-22 17:40:00,37.2,34.3,29.87,South,180,2.3,0.0,89,0.01,CLR,,0.26,WeatherDisplay:10.37,2013-02-22 22:40:00,
2013-02-22 17:45:00,37.0,34.1,29.87,NE,45,3.5,3.5,89,0.02,RA,,0.27,WeatherDisplay:10.37,2013-02-22 22:45:00,
2013-02-22 17:50:00,37.2,34.3,29.87,SW,225,3.5,3.5,89,0.01,RA,,0.27,WeatherDisplay:10.37,2013-02-22 22:50:00,
2013-02-22 17:55:00,37.0,34.1,29.88,East,90,2.3,2.3,89,0.01,CLR,,0.27,WeatherDisplay:10.37,2013-02-22 22:55:00,
2013-02-22 18:00:00,37.2,34.3,29.88,SW,225,2.3,0.0,89,0.01,CLR,,0.27,WeatherDisplay:10.37,2013-02-22 23:00:00,
2013-02-22 18:05:00,37.2,34.3,29.88,NE,45,4.6,4.6,89,0.01,CLR,,0.27,WeatherDisplay:10.37,2013-02-22 23:05:00,
2013-02-22 18:10:00,37.2,34.6,29.88,SE,135,4.6,4.6,90,0.01,CLR,,0.27,WeatherDisplay:10.37,2013-02-22 23:10:00,
2013-02-22 18:15:00,37.2,34.6,29.88,NE,45,3.5,3.5,90,0.01,CLR,,0.27,WeatherDisplay:10.37,2013-02-22 23:15:00,
2013-02-22 18:20:00,37.2,34.6,29.88,North,0,3.5,3.5,90,0.01,CLR,,0.27,WeatherDisplay:10.37,2013-02-22 23:20:00,
2013-02-22 18:25:00,37.2,34.6,29.88,NE,45,4.6,4.6,90,0.01,CLR,,0.27,WeatherDisplay:10.37,2013-02-22 23:25:00,
2013-02-22 18:30:00,37.2,34.8,29.88,NE,45,5.8,5.8,91,0.01,CLR,,0.27,WeatherDisplay:10.37,2013-02-22 23:30:00,
2013-02-22 18:35:00,37.2,34.8,29.88,East,90,3.5,3.5,91,0.01,CLR,,0.27,WeatherDisplay:10.37,2013-02-22 23:35:00,
2013-02-22 18:40:00,37.2,34.8,29.87,WNW,292,2.3,0.0,91,0.02,RA,,0.28,WeatherDisplay:10.37,2013-02-22 23:40:00,
2013-02-22 18:45:00,37.2,34.8,29.87,NE,45,3.5,3.5,91,0.01,RA,,0.28,WeatherDisplay:10.37,2013-02-22 23:45:00,
2013-02-22 18:50:00,37.2,34.8,29.87,NE,45,2.3,2.3,91,0.01,,,0.28,WeatherDisplay:10.37,2013-02-22 23:50:00,
2013-02-22 18:55:00,37.4,36.1,29.87,East,90,1.2,0.0,95,0.01,CLR,,0.28,WeatherDisplay:10.37,2013-02-22 23:55:00,
2013-02-22 19:00:00,37.2,34.8,29.87,WNW,292,1.6,0.0,91,0.01,CLR,,0.28,WeatherDisplay:10.37,2013-02-23 00:00:00,
2013-02-22 19:05:00,37.2,34.8,29.86,NW,315,1.2,0.0,91,0.01,CLR,,0.28,WeatherDisplay:10.37,2013-02-23 00:05:00,
2013-02-22 19:10:00,37.0,34.7,29.86,East,90,3.5,3.5,91,0.01,CLR,,0.28,WeatherDisplay:10.37,2013-02-23 00:10:00,
2013-02-22 19:15:00,37.2,34.8,29.86,NE,45,2.3,2.3,91,0.01,CLR,,0.28,WeatherDisplay:10.37,2013-02-23 00:15:00,
2013-02-22 19:20:00,37.2,34.8,29.86,East,90,3.5,0.0,91,0.01,CLR,,0.28,WeatherDisplay:10.37,2013-02-23 00:20:00,
2013-02-22 19:25:00,37.2,34.8,29.86,NE,45,1.2,1.2,91,0.01,CLR,,0.28,WeatherDisplay:10.37,2013-02-23 00:25:00,
2013-02-22 19:30:00,37.2,34.8,29.85,NE,45,2.3,2.3,91,0.01,CLR,,0.28,WeatherDisplay:10.37,2013-02-23 00:30:00,
2013-02-22 19:35:00,37.4,36.1,29.85,South,180,1.2,0.0,95,0.01,CLR,,0.28,WeatherDisplay:10.37,2013-02-23 00:35:00,
2013-02-22 19:40:00,37.4,36.1,29.85,SW,225,2.3,2.3,95,0.00,CLR,,0.28,WeatherDisplay:10.37,2013-02-23 00:40:00,
2013-02-22 19:45:00,37.4,36.4,29.85,SW,225,2.3,2.3,96,0.00,CLR,,0.28,WeatherDisplay:10.37,2013-02-23 00:45:00,
2013-02-22 19:50:00,37.4,36.4,29.84,SW,225,2.3,0.0,96,0.00,CLR,,0.28,WeatherDisplay:10.37,2013-02-23 00:50:00,
2013-02-22 19:55:00,37.4,36.4,29.84,WNW,292,3.5,3.5,96,0.00,CLR,,0.28,WeatherDisplay:10.37,2013-02-23 00:55:00,
2013-02-22 20:00:00,37.4,36.4,29.85,North,0,2.3,2.3,96,0.00,CLR,,0.28,WeatherDisplay:10.37,2013-02-23 01:00:00,
2013-02-22 20:05:00,37.4,36.4,29.85,SW,225,1.2,0.0,96,0.00,CLR,,0.28,WeatherDisplay:10.37,2013-02-23 01:05:00,
2013-02-22 20:10:00,37.6,36.5,29.85,East,90,3.5,0.0,96,0.00,CLR,,0.28,WeatherDisplay:10.37,2013-02-23 01:10:00,
2013-02-22 20:15:00,37.6,36.5,29.85,South,180,2.3,2.3,96,0.00,CLR,,0.28,WeatherDisplay:10.37,2013-02-23 01:15:00,
2013-02-22 20:20:00,37.6,36.5,29.85,East,90,2.3,0.0,96,0.00,CLR,,0.28,WeatherDisplay:10.37,2013-02-23 01:20:00,
2013-02-22 20:25:00,37.6,36.5,29.86,West,270,1.2,0.0,96,0.00,CLR,,0.28,WeatherDisplay:10.37,2013-02-23 01:25:00,
2013-02-22 20:30:00,37.6,36.5,29.85,North,0,2.3,2.3,96,0.00,CLR,,0.28,WeatherDisplay:10.37,2013-02-23 01:30:00,
2013-02-22 20:35:00,37.6,36.5,29.85,North,0,3.5,3.5,96,0.00,CLR,,0.28,WeatherDisplay:10.37,2013-02-23 01:35:00,
2013-02-22 20:40:00,37.6,36.5,29.86,NE,45,4.6,4.6,96,0.01,RA,,0.30,WeatherDisplay:10.37,2013-02-23 01:40:00,
2013-02-22 20:45:00,37.8,36.7,29.87,NE,45,4.6,4.6,96,0.01,RA,,0.30,WeatherDisplay:10.37,2013-02-23 01:45:00,
2013-02-22 20:50:00,37.8,36.7,29.86,East,90,4.6,4.6,96,0.01,CLR,,0.30,WeatherDisplay:10.37,2013-02-23 01:50:00,
2013-02-22 20:55:00,37.8,36.7,29.86,East,90,5.8,5.8,96,0.01,CLR,,0.30,WeatherDisplay:10.37,2013-02-23 01:55:00,
2013-02-22 21:00:00,37.8,36.7,29.85,South,180,4.6,4.6,96,0.01,CLR,,0.30,WeatherDisplay:10.37,2013-02-23 02:00:00,
2013-02-22 21:05:00,37.9,36.9,29.86,NE,45,5.8,5.8,96,0.01,CLR,,0.30,WeatherDisplay:10.37,2013-02-23 02:05:00,
2013-02-22 21:10:00,37.8,36.7,29.86,NE,45,3.5,3.5,96,0.01,CLR,,0.30,WeatherDisplay:10.37,2013-02-23 02:10:00,
2013-02-22 21:15:00,37.8,36.7,29.85,North,0,4.6,4.6,96,0.01,CLR,,0.30,WeatherDisplay:10.37,2013-02-23 02:15:00,
2013-02-22 21:20:00,37.8,37.0,29.85,ENE,68,3.5,3.5,97,0.02,RA,,0.31,WeatherDisplay:10.37,2013-02-23 02:20:00,
2013-02-22 21:25:00,37.8,37.0,29.85,East,90,3.5,3.5,97,0.02,RA,,0.31,WeatherDisplay:10.37,2013-02-23 02:25:00,
2013-02-22 21:30:00,37.8,37.0,29.85,East,90,2.3,2.3,97,0.02,,,0.31,WeatherDisplay:10.37,2013-02-23 02:30:00,
2013-02-22 21:35:00,37.8,37.0,29.85,East,90,1.2,1.2,97,0.02,CLR,,0.31,WeatherDisplay:10.37,2013-02-23 02:35:00,
2013-02-22 21:40:00,37.8,37.0,29.85,NE,45,2.3,2.3,97,0.01,CLR,,0.31,WeatherDisplay:10.37,2013-02-23 02:40:00,
2013-02-22 21:45:00,37.8,37.0,29.85,NE,45,5.8,5.8,97,0.01,CLR,,0.31,WeatherDisplay:10.37,2013-02-23 02:45:00,
2013-02-22 21:50:00,37.8,37.0,29.85,ENE,68,3.5,3.5,97,0.01,CLR,,0.31,WeatherDisplay:10.37,2013-02-23 02:50:00,
2013-02-22 21:55:00,37.6,36.8,29.84,NW,315,2.3,2.3,97,0.02,RA,,0.32,WeatherDisplay:10.37,2013-02-23 02:55:00,
2013-02-22 22:00:00,37.6,36.8,29.84,West,270,3.5,0.0,97,0.02,RA,,0.32,WeatherDisplay:10.37,2013-02-23 03:00:00,
2013-02-22 22:05:00,37.6,36.8,29.83,SW,225,1.2,0.0,97,0.02,CLR,,0.32,WeatherDisplay:10.37,2013-02-23 03:05:00,
2013-02-22 22:10:00,37.6,36.8,29.83,NE,45,1.2,0.0,97,0.02,CLR,,0.32,WeatherDisplay:10.37,2013-02-23 03:10:00,
2013-02-22 22:15:00,37.8,37.0,29.84,NE,45,4.6,4.6,97,0.02,CLR,,0.32,WeatherDisplay:10.37,2013-02-23 03:15:00,
2013-02-22 22:20:00,37.8,37.0,29.84,NE,45,5.8,5.8,97,0.01,CLR,,0.32,WeatherDisplay:10.37,2013-02-23 03:20:00,
2013-02-22 22:25:00,37.8,37.0,29.85,East,90,3.5,3.5,97,0.01,CLR,,0.32,WeatherDisplay:10.37,2013-02-23 03:25:00,
2013-02-22 22:30:00,37.8,37.0,29.84,North,0,4.6,4.6,97,0.01,CLR,,0.32,WeatherDisplay:10.37,2013-02-23 03:30:00,
2013-02-22 22:35:00,37.6,36.8,29.83,SW,225,1.2,0.0,97,0.01,CLR,,0.32,WeatherDisplay:10.37,2013-02-23 03:35:00,
2013-02-22 22:40:00,37.8,37.0,29.83,NW,315,4.6,0.0,97,0.01,CLR,,0.32,WeatherDisplay:10.37,2013-02-23 03:40:00,
2013-02-22 22:45:00,37.6,36.8,29.83,NE,45,3.5,3.5,97,0.01,CLR,,0.32,WeatherDisplay:10.37,2013-02-23 03:45:00,
2013-02-22 22:50:00,37.8,37.0,29.83,NE,45,3.5,3.5,97,0.01,CLR,,0.32,WeatherDisplay:10.37,2013-02-23 03:50:00,
2013-02-22 22:55:00,37.8,37.0,29.83,NE,45,5.8,5.8,97,0.00,CLR,,0.32,WeatherDisplay:10.37,2013-02-23 03:55:00,
2013-02-22 23:00:00,37.8,37.0,29.84,NE,45,3.5,3.5,97,0.00,CLR,,0.32,WeatherDisplay:10.37,2013-02-23 04:00:00,
2013-02-22 23:05:00,37.8,37.0,29.84,NE,45,3.5,3.5,97,0.00,CLR,,0.32,WeatherDisplay:10.37,2013-02-23 04:05:00,
2013-02-22 23:10:00,37.8,37.0,29.84,NE,45,8.1,8.1,97,0.00,CLR,,0.32,WeatherDisplay:10.37,2013-02-23 04:10:00,
2013-02-22 23:15:00,37.8,37.0,29.84,NE,45,5.8,5.8,97,0.00,CLR,,0.32,WeatherDisplay:10.37,2013-02-23 04:15:00,
2013-02-22 23:20:00,37.6,36.8,29.83,East,90,5.8,5.8,97,0.00,CLR,,0.32,WeatherDisplay:10.37,2013-02-23 04:20:00,
2013-02-22 23:25:00,37.6,36.8,29.83,NE,45,4.6,4.6,97,0.00,CLR,,0.32,WeatherDisplay:10.37,2013-02-23 04:25:00,
2013-02-22 23:30:00,37.6,36.8,29.83,NE,45,5.8,5.8,97,0.01,RA,,0.33,WeatherDisplay:10.37,2013-02-23 04:30:00,
2013-02-22 23:35:00,37.6,36.8,29.82,NE,45,2.3,2.3,97,0.01,RA,,0.33,WeatherDisplay:10.37,2013-02-23 04:35:00,
2013-02-22 23:40:00,37.6,36.8,29.81,SW,225,3.5,3.5,97,0.01,CLR,,0.33,WeatherDisplay:10.37,2013-02-23 04:40:00,
2013-02-22 23:45:00,37.4,36.6,29.81,NE,45,4.6,4.6,97,0.01,CLR,,0.33,WeatherDisplay:10.37,2013-02-23 04:45:00,
2013-02-22 23:50:00,37.4,36.6,29.81,SW,225,3.5,3.5,97,0.01,CLR,,0.33,WeatherDisplay:10.37,2013-02-23 04:50:00,
2013-02-22 23:55:00,37.4,36.6,29.80,North,0,4.6,4.6,97,0.01,CLR,,0.33,WeatherDisplay:10.37,2013-02-23 04:55:00,